Location: Dieppe
(49.9230°N, 1.0775°E)
Time: 18:28:29
(UTC+02:00)

ISS - Pass Details

Date: 27 May 2018
Orbit: 402 x 406 km, 51.6° (Epoch: 22 June)

Event Time Altitude Azimuth Distance (km) Brightness Sun altitude
Rises 01:52:15 0° 288° (WNW) 2,323 0.3 -18.8°
Reaches altitude 10° 01:54:21 10° 284° (WNW) 1,461 -0.9 -18.8°
Enters shadow 01:56:44 41° 260° (W) 599 -3.1 -18.8°
